Meteo Giornale » Osservazioni meteo Gran Bretagna » Luton

ore: 17:50 - Osservazioni Meteo Luton
Lat. 51° 52' N Lon. 0° 22' W Alt. 160 metri s.l.m.

coperto Europe/London

17 °C

Coperto

Temp. 24 Ore

13 °C

20 °C

Nord-Ovest

13 Km/h

Dew point 14 °C

Umidità 82 %

Visibilità  10 Km

Il sole sorge alle ore 06:41

Il sole tramonta alle ore 19:08

Data e Ora Cielo e Fenomeni T °C DP °C Um. % Pres. hPa Vis. km Vento km/h
Oggi h: 17:50 coperto Coperto 17 14 82 1015 10 NO 13
Oggi h: 17:20 coperto Coperto 17 14 82 1015 10 NO 13
Oggi h: 16:50 coperto Coperto 17 14 82 1015 10 O/NO 14.8
Oggi h: 16:20 molto_nuvoloso Molto Nuvoloso 17 14 82 1015 10 O/NO 16.7
Oggi h: 15:50 coperto Coperto 17 14 82 1015 10 O/NO 16.7
Oggi h: 15:20 molto_nuvoloso Molto Nuvoloso 17 14 82 1015 10 O/NO 13
Oggi h: 14:50 molto_nuvoloso Molto Nuvoloso 17 15 88 1015 10 O/NO 13
Oggi h: 14:20 nuvoloso Nuvoloso 17 15 88 1015 10 N/NO 7.4
Oggi h: 13:50 molto_nuvoloso Molto Nuvoloso 16 14 87 1015 10 N/NO 7.4
Oggi h: 13:20 coperto Coperto 17 14 82 1015 10 N/NO 9.3
Oggi h: 12:50 nuvoloso Nuvoloso 17 15 88 1015 10 N/NO 11.1
Oggi h: 12:20 molto_nuvoloso Molto Nuvoloso 17 15 88 1015 10 N 13
Oggi h: 11:20 molto_nuvoloso Molto Nuvoloso 17 15 88 1014 10 NO 13
Oggi h: 10:50 nuvoloso Nuvoloso 16 14 87 1014 10 NO 13
Oggi h: 10:20 sereno Sereno 16 14 87 1014 10 NO 14.8
Oggi h: 09:50 sereno Sereno 17 13 77 1014 10 O/NO 13
Oggi h: 09:20 poco_nuvoloso Poco Nuvoloso 17 14 82 1014 10 O 9.3
Oggi h: 08:20 foschia Foschia 15 15 100 1013 1 N 1.8
Oggi h: 07:50 foschia Foschia 15 15 100 1013 2 N 3.7
Oggi h: 07:20 foschia Foschia 15 15 100 1013 2 N 3.7
Oggi h: 06:50 foschia Foschia 14 14 100 1013 2 N 3.7
Oggi h: 06:20 foschia Foschia 15 14 93 1013 2 N 1.8
Oggi h: 05:20 foschia Foschia 15 14 93 1013 2 N 1.8
Oggi h: 04:50 foschia Foschia 15 14 93 1013 2 N 3.7
Oggi h: 04:20 foschia Foschia 15 15 100 1013 2 N 3.7
Oggi h: 03:50 foschia Foschia 13 13 100 1013 2 N 5.5
Oggi h: 03:20 foschia Foschia 13 13 100 1013 2 N 1.8
Oggi h: 02:50 foschia Foschia 14 13 93 1013 3 N 5.5
Oggi h: 02:20 foschia Foschia 13 12 93 1013 4 N 3.7
Oggi h: 01:50 foschia Foschia 14 13 93 1013 4 N 5.5
Oggi h: 01:20 sereno Sereno 14 13 93 1013 6 N 3.7
Oggi h: 00:50 sereno Sereno 15 13 87 1013 7 N 3.7
Oggi h: 00:20 sereno Sereno 15 13 87 1013 8 N 5.5
Ieri h: 23:20 sereno Sereno 16 13 82 1014 10 SE 9.3
Ieri h: 22:50 sereno Sereno 16 13 82 1014 10 SE 9.3
Ieri h: 22:20 sereno Sereno 17 13 77 1014 10 SE 7.4
Ieri h: 21:50 sereno Sereno 17 13 77 1014 10 SE 11.1
Ieri h: 21:20 sereno Sereno 17 12 72 1014 10 SE 9.3
Ieri h: 20:50 sereno Sereno 18 12 67 1014 10 SE 7.4
Ieri h: 20:20 sereno Sereno 18 12 67 1014 10 S/SE 9.3
Ieri h: 19:50 sereno Sereno 19 12 63 1013 10 S/SE 9.3
Ieri h: 19:20 sereno Sereno 19 12 63 1013 10 S/SE 9.3
Ieri h: 18:50 sereno Sereno 20 12 59 1013 10 SE 9.3